Tracking 20715 objects as of 27-May-2020
HD Live streaming from Space Station
objects crossing your sky now

IRIDIUM 47 DEB

Track IRIDIUM 47 DEB now!
10-day predictions


NORAD ID: 40251
Int'l Code: 1997-082L
Perigee: 772.6 km
Apogee: 1,016.4 km
Inclination: 86.3 °
Period: 102.7 minutes
Semi major axis: 7265 km
RCS: Unknown
Launch date: December 20, 1997
Source: United States (US)
Launch site: AIR FORCE WESTERN TEST RANGE (AFWTR)

Note: This is SATELLITE DEBRIS
aabbcc
Your satellite tracking list
Your tracking list is empty




NASA's NSSDC Master Catalog

Two Line Element Set (TLE):
1 40251U 97082L   20147.58521380  .00000829  00000-0  47303-3 0  9993
2 40251  86.3474 203.8210 0167801 268.7548  89.4402 14.01862579293773
Source of the keplerian elements: AFSPC